Location: Praha
(50.0830°N, 14.4670°E)
Time: 03:22:37
(UTC+02:00)

ISS - Pass Details

Date: 17 May 2022
Orbit: 414 x 421 km, 51.6° (Epoch: 22 May)

Event Time Altitude Azimuth Distance (km) Brightness Sun altitude
Rises 23:19:20 0° 269° (W) 2,357 0.4 -17.1°
Reaches altitude 10° 23:21:26 10° 272° (W) 1,493 -0.6 -17.2°
Maximum altitude 23:24:46 66° 355° (N) 459 -3.4 -17.4°
Drops below altitude 10° 23:28:06 10° 79° (E) 1,491 -1.1 -17.6°
Enters shadow 23:28:15 - 79° (E) 1,553 -1.0 -17.6°
